Location: Ferques
(50.8300°N, 1.7599°E)
Time: 19:16:14
(UTC+00:00)

Cosmos 1400 Rocket - Pass Details

Date: 19 May 2025
Orbit: 484 x 519 km, 81.1° (Epoch: 21 June)

Event Time Altitude Azimuth Distance (km) Brightness Sun altitude
Rises 21:07:05 0° 209° (SSW) 2,558 6.0 -10.7°
Reaches altitude 10° 21:09:17 10° 217° (SW) 1,677 5.1 -10.9°
Maximum altitude 21:12:45 40° 288° (WNW) 738 4.0 -11.3°
Drops below altitude 10° 21:16:15 10° 359° (N) 1,682 6.2 -11.6°
Sets 21:18:27 0° 7° (N) 2,566 7.0 -11.8°
